EW2887 Weather Reports


Display with metric or nautical units.
time (UTC)temp
F
wind
direction
speed
MPH
gust
MPH
rain 1hr
in
rain 24hr
in
rain mn
in
humidity
%
barometer
mb
20260508234513 79 9 8.0 19.0 0.00 0.00 0.00 24 1006.1
20260508233014 79 13 10.0 21.0 0.00 0.00 0.00 24 1006.0
20260508231513 79 57 5.0 20.0 0.00 0.00 0.00 23 1006.2
20260508230012 80 360 12.0 21.0 0.00 0.00 0.00 23 1006.1
20260508224512 79 318 14.0 27.0 0.00 0.00 0.00 23 1006.1
20260508223011 80 360 12.0 20.0 0.00 0.00 0.00 23 1006.1
20260508221512 79 49 14.0 18.0 0.00 0.00 0.00 23 1006.1
20260508220009 79 22 12.0 25.0 0.00 0.00 0.00 23 1006.1
20260508214509 79 5 7.0 18.0 0.00 0.00 0.00 23 1006.3
20260508213014 79 48 11.0 26.0 0.00 0.00 0.00 22 1006.4
20260508211505 79 355 10.0 22.0 0.00 0.00 0.00 23 1006.4
20260508210005 79 11 14.0 29.0 0.00 0.00 0.00 23 1006.4
20260508204501 79 30 13.0 26.0 0.00 0.00 0.00 22 1006.6
20260508203108 79 10 15.0 27.0 0.00 0.00 0.00 22 1006.6
20260508201558 79 5 13.0 29.0 0.00 0.00 0.00 22 1006.6
20260508200057 80 360 12.0 23.0 0.00 0.00 0.00 22 1006.7
20260508194556 80 19 11.0 18.0 0.00 0.00 0.00 22 1006.7
20260508193107 79 5 13.0 25.0 0.00 0.00 0.00 22 1006.9
20260508191557 79 360 12.0 20.0 0.00 0.00 0.00 23 1007.0
20260508190105 79 30 12.0 18.0 0.00 0.00 0.00 23 1007.0
20260508184550 79 355 11.0 15.0 0.00 0.00 0.00 25 1007.1
20260508183106 77 355 11.0 19.0 0.00 0.00 0.00 28 1007.3
20260508181548 77 340 12.0 20.0 0.00 0.00 0.00 27 1007.6
20260508180057 78 328 8.0 20.0 0.00 0.00 0.00 28 1007.7
20260508174600 77 336 8.0 15.0 0.00 0.00 0.00 28 1007.8
20260508173042 76 20 4.0 18.0 0.00 0.00 0.00 28 1008.0
20260508171541 78 345 9.0 12.0 0.00 0.00 0.00 25 1008.1
20260508170043 80 300 3.0 8.0 0.00 0.00 0.00 26 1008.2
20260508164545 76 319 3.0 13.0 0.00 0.00 0.00 30 1008.5
20260508163036 75 303 8.0 14.0 0.00 0.00 0.00 32 1008.6
20260508161532 75 319 2.0 9.0 0.00 0.00 0.00 30 1008.5
20260508160034 77 263 4.0 10.0 0.00 0.00 0.00 29 1008.7
20260508154526 74 286 4.0 13.0 0.00 0.00 0.00 33 1008.8
20260508153030 72 267 8.0 13.0 0.00 0.00 0.00 35 1009.0
20260508151520 69 300 10.0 16.0 0.00 0.00 0.00 42 1009.0
20260508150015 67 275 10.0 18.0 0.00 0.00 0.00 47 1009.2
20260508144514 65 242 16.0 22.0 0.00 0.00 0.00 52 1009.1
20260508143009 63 267 14.0 20.0 0.00 0.00 0.00 56 1009.2
20260508141505 62 235 12.0 20.0 0.00 0.00 0.00 61 1009.4
20260508140100 61 241 15.0 23.0 0.00 0.00 0.00 62 1009.4
20260508134556 59 360 12.0 19.0 0.00 0.00 0.00 65 1009.4
20260508133054 57 238 13.0 17.0 0.00 0.00 0.00 66 1009.7
20260508131606 56 234 16.0 22.0 0.00 0.00 0.00 67 1009.6
20260508130054 55 210 19.0 25.0 0.00 0.00 0.00 69 1009.3
20260508124552 54 211 17.0 24.0 0.00 0.00 0.00 70 1009.1
20260508123112 54 234 16.0 20.0 0.00 0.00 0.00 71 1009.1
20260508121601 53 244 8.0 17.0 0.00 0.00 0.00 71 1009.4
20260508120107 54 240 14.0 22.0 0.00 0.00 0.00 71 1009.0
20260508114558 54 221 18.0 25.0 0.00 0.00 0.00 72 1008.9
20260508113056 53 360 16.0 22.0 0.00 0.00 0.00 71 1009.0
20260508111549 52 209 17.0 22.0 0.00 0.00 0.00 71 1009.1
20260508110045 52 218 18.0 21.0 0.00 0.00 0.00 71 1009.1
20260508104546 52 209 17.0 21.0 0.00 0.00 0.00 69 1009.2
20260508103055 53 210 17.0 23.0 0.00 0.00 0.00 68 1009.3
20260508101550 53 207 17.0 21.0 0.00 0.00 0.00 67 1009.4
20260508100037 53 215 16.0 23.0 0.00 0.00 0.00 66 1009.5
20260508094535 54 202 16.0 21.0 0.00 0.00 0.00 65 1009.5
20260508093039 54 192 17.0 21.0 0.00 0.00 0.00 64 1009.6
20260508091534 53 207 14.0 21.0 0.00 0.00 0.00 63 1009.9
20260508090030 52 207 17.0 22.0 0.00 0.00 0.00 62 1010.1
20260508084530 52 206 16.0 20.0 0.00 0.00 0.00 60 1010.1
20260508083027 51 205 15.0 19.0 0.00 0.00 0.00 58 1010.0
20260508081522 52 207 14.0 17.0 0.00 0.00 0.00 55 1010.1
20260508080019 53 202 13.0 18.0 0.00 0.00 0.00 54 1010.2
20260508074520 53 218 15.0 20.0 0.00 0.02 0.00 53 1010.4
20260508073014 53 214 13.0 17.0 0.00 0.02 0.00 52 1010.5
20260508071515 53 205 12.0 15.0 0.00 0.02 0.00 50 1010.7
20260508070007 54 196 10.0 16.0 0.00 0.02 0.00 49 1010.9
20260508064504 55 198 10.0 13.0 0.00 0.02 0.00 48 1011.0
20260508063107 55 185 9.0 14.0 0.00 0.02 0.00 47 1011.1
20260508061559 56 186 8.0 13.0 0.00 0.02 0.00 47 1011.2
20260508060053 56 179 8.0 12.0 0.00 0.02 0.00 45 1011.3
20260508054551 57 171 8.0 13.0 0.00 0.02 0.00 45 1011.4
20260508053053 58 360 8.0 12.0 0.00 0.02 0.00 43 1011.7
20260508051543 58 166 8.0 14.0 0.00 0.02 0.00 42 1011.8
20260508050042 59 191 6.0 12.0 0.00 0.02 0.00 40 1012.0
20260508044539 59 164 8.0 13.0 0.00 0.02 0.02 39 1012.0
20260508043054 60 167 7.0 11.0 0.00 0.02 0.02 37 1012.1
20260508041547 61 174 6.0 10.0 0.00 0.02 0.02 36 1012.2
20260508040039 61 168 6.0 8.0 0.00 0.02 0.02 35 1012.3
20260508034536 61 178 4.0 7.0 0.00 0.02 0.02 33 1012.3
20260508033035 63 186 5.0 7.0 0.00 0.02 0.02 32 1012.3
20260508031535 63 189 5.0 7.0 0.00 0.02 0.02 31 1012.1
20260508030041 64 189 6.0 8.0 0.00 0.02 0.02 31 1011.8
20260508024533 65 184 7.0 10.0 0.00 0.02 0.02 29 1011.5
20260508023034 66 182 6.0 8.0 0.00 0.02 0.02 28 1011.5
20260508021536 67 181 5.0 7.0 0.00 0.02 0.02 27 1011.4
20260508020043 68 181 6.0 8.0 0.00 0.02 0.02 27 1011.3
20260508014532 69 190 7.0 8.0 0.00 0.02 0.02 25 1011.1
20260508013032 71 207 7.0 12.0 0.00 0.02 0.02 24 1011.0
20260508011531 73 360 10.0 13.0 0.00 0.02 0.02 23 1011.1
20260508010034 74 207 9.0 15.0 0.00 0.02 0.02 23 1011.0
20260508004532 74 223 15.0 21.0 0.00 0.02 0.02 22 1011.1
20260508003030 74 203 13.0 17.0 0.00 0.02 0.02 23 1011.1
20260508001556 76 213 14.0 18.0 0.00 0.02 0.02 21 1011.1
20260508000028 76 236 13.0 18.0 0.00 0.02 0.02 20 1011.2